Voltar ao catálogo

COSMOS 1220 DEB

AtivoVLEO
NORAD 25795·DEBRIS·🇷🇺 Russia

Lançado Nov 4, 1980 de Baikonur Cosmodrome

Loading…

Próximas Passagens (próximas 24 horas)

TLE

AtualizadoSource: Space-Track

Época: Sep 14, 2026, 20:20 UTC

1 25795U 80089CJ  26257.84749273  .00014515  00000-0  28824-3 0  9992
2 25795  64.9670 141.8964 0046508 225.8450 133.8865 15.46035647585939

Acompanhe COSMOS 1220 DEB em tempo real com AllMySat

Download on the App Store